Home > Weather > Mosman > Past weeks

Flag for Australia Past Weather in Mosman, New South Wales, Australia — Yesterday and Last 2 Weeks

Now
49 °F

Cool.


Feels Like: N/A
Forecast: 49 / 62 °F
Wind: N/A

Location: Sydney Regional Office

Current Time: Jul 25, 2016 at 2:38:38 AM

Latest Report: Jul 25, 2016 at 12:00 AM


Visibility: N/A

Pressure: 29.87 "Hg

Humidity: 58%

Dew Point: 35 °F

Location of MosmanLocation

Past Weather in Mosman — Graph

°F

Mosman Temperature Yesterday

Maximum temperature yesterday: 56 °F (at 3:00 PM)
Minimum temperature yesterday: 47 °F (at 6:00 AM)
Average temperature yesterday: 50 °F

High & Low Weather Summary for the Past Weeks

 TemperatureHumidityPressure
High78 °F (Jul 22, 2:00 PM)93% (Jul 18, 8:00 AM)30.51 "Hg (Jul 18, 8:00 AM)
Low44 °F (Jul 14, 6:00 AM)25% (Jul 13, 2:00 PM)29.41 "Hg (Jul 22, 11:00 PM)
Average58 °F64%30.08 "Hg
* Reported Jul 10 12:00 AM — Jul 25 12:00 AM, Mosman, Weather by CustomWeather, © 2016

Note: Actual official high and low records may vary slightly from our data, if they occured in-between our weather recording intervals... More about our weather records

Advertising

Mosman Weather History for the Previous 24 Hours

Scroll right to see more
 ConditionsComfort  
Time TempWeatherWind HumidityBarometerVisibility
12:00 AM
Mon, Jul 25
49 °FCool.N/A58%29.87 "HgN/A
11:00 PM
Sun, Jul 24
49 °FCool.N/A59%29.89 "HgN/A
9:00 PM50 °FCool.N/A51%29.91 "HgN/A
8:00 PM50 °FCool.N/A52%29.93 "HgN/A
6:00 PM51 °FCool.N/A50%29.90 "HgN/A
5:00 PM52 °FCool.N/A45%29.88 "HgN/A
3:00 PM56 °FRefreshingly cool.N/A39%29.89 "HgN/A
2:00 PM55 °FCool.N/A40%29.90 "HgN/A
12:00 PM51 °FCool.N/A43%29.96 "HgN/A
11:00 AM50 °FCool.N/A46%30.00 "HgN/A
9:00 AM48 °FCool.N/A50%30.00 "HgN/A
8:00 AM47 °FCool.N/A53%29.98 "HgN/A
6:00 AM47 °FCool.N/A50%29.98 "HgN/A
5:00 AM47 °FCool.N/A47%29.96 "HgN/A
3:00 AM49 °FCool.N/A39%29.94 "HgN/A
2:00 AM48 °FCool.N/A42%29.96 "HgN/A
Weather by CustomWeather, © 2016

See weather overviewHow to use our weather pages